Regional Weather Roundup
Issued by NWS

Home | Current Version | Previous Version | Graphics & Text | Print | Product List | Glossary On
Versions: 1 2 3 4 5 6 7 8 9 10 11 12 13 14 15 16 17 18 19 20 21 22 23 24 25 26 27 28 29 30 31 32 33 34 35 36 37 38 39 40 41 42 43 44 45 46 47 48 49 50
683
ASUS43 KBIS 131902
RWRND

NORTH DAKOTA REGIONAL WEATHER ROUNDUP
NATIONAL WEATHER SERVICE BISMARCK ND
100 PM CST SAT FEB 13 2016

NOTE: "FAIR" INDICATES FEW OR NO CLOUDS BELOW 12,000 FEET WITH NO
SIGNIFICANT WEATHER AND/OR OBSTRUCTIONS TO VISIBILITY.


NDZ001>003-009>011-017-132000-
NORTHWEST NORTH DAKOTA

CITY           SKY/WX    TMP DP  RH WIND       PRES   REMARKS
WILLISTON      CLOUDY    21  13  71 S10       29.93R WCI  10
MINOT          CLOUDY    17   5  59 SE17G25   30.02F WCI   1
MINOT AFB      CLOUDY    16   7  67 SE20      30.02F WCI  -1
$$

NDZ018>021-031>035-040>046-132000-
SOUTHWEST NORTH DAKOTA

CITY           SKY/WX    TMP DP  RH WIND       PRES   REMARKS
BISMARCK       CLOUDY    15   5  64 S23       30.09F WCI  -3
DICKINSON      CLOUDY    16  13  88 S26       29.83F FOG     WCI  -3
GARRISON         N/A     12   8  84 SE23      29.99F WCI  -7
HETTINGER ARPT CLOUDY    19  17  92 SE15G24   29.91F FOG     WCI   5
$$

NDZ004>008-012>016-024-026-027-054-132000-
NORTHEAST NORTH DAKOTA

CITY           SKY/WX    TMP DP  RH WIND       PRES   REMARKS
GRAND FORKS    MOSUNNY    5  -5  63 S17       30.39F WCI -14
GRND FRKS AFB  SUNNY      6  -4  62 S17       30.36F WCI -13
DEVILS LAKE    CLOUDY     5  -4  66 SE20      30.22F WCI -15
$$

NDZ022-023-025-028>030-036>039-047>053-132000-
SOUTHEAST NORTH DAKOTA

CITY           SKY/WX    TMP DP  RH WIND       PRES   REMARKS
FARGO          SUNNY      9  -3  58 SE21G26   30.39F WCI -11
JAMESTOWN      CLOUDY     7  -2  66 SE18G30   30.21F WCI -12
$$





USA.gov is the U.S. government's official web portal to all federal, state and local government web resources and services.